JILIN-01 KUANFU 02B 3

导读 | 星芒AI

JILIN-01 KUANFU 02B 3 是吉林一号宽幅02B系列卫星之一,由中国长光卫星技术有限公司研制。该卫星具备高分辨率、宽幅成像能力,主要用于遥感观测、国土资源监测、环境评估等领域。其搭载先进光学载荷,可实现高效数据获取与传输,提升对地观测效率。该卫星的发射进一步完善了吉林一号卫星星座,增强了我国商业遥感数据服务能力。

基本信息
目录编号:
61191
目录名称:
JILIN-01 KUANFU 02B 3
国际标识:
2024-169C
轨道中心:
EARTH
卫星名称:
JILIN-01 KUANFU 02B 3
卫星全名:
JILIN-01 KUANFU 02B 3
卫星状态:
在轨 (已飞行393 天)
发射日期:
2024-09-20 UTC
国别 :
中国 (CN)
星等 :
--
轨道信息
数据来源 国际轨道数据
星历时间: 2025-10-18T08:16:35+0800
5小时前
查看轨道信息
半长轴: 6914.375km
偏心率: 0.0007115
轨道倾角: 97.576°
近地点辐角 68.366°
升交点赤经 18.646°
平近点角 291.833°
近地点: 531.32km
远地点: 541.16km
周期: 95.365分钟
每日圈数: 15.099877
详细信息
使用方式:
暂无
2D轨道图
3D轨道图
轨道高度分析图
轨道倾角分析图
轨道综合分析图
查看轨道综合分析图